Погода в Хасаново

Россия / Республика Марий Эл     56°51′08″N   49°27′30″E
темп.,
°C
ветер,
м/с
пор.,
м/с
влажн.,
%
обл.,
%
осадки,
мм/ч
давл.,
гПа
погр.,
м
23 апреля, пт
пт2300:00+4ю489527 0.0 1024202
03:00+3ююз249646 0.0 102480
06:00+4ю23925 0.0 102581
09:00+10ююв23695 0.0 1025596
12:00+12ююв445953 0.1 10241444
15:00+11ююв3665100 0.3 1024388
18:00+11юв366830 0.1 1023191
21:00+7юв38857 0.2 1022150
24 апреля, сб
сб2400:00+5вюв3890100 0.0 1021150
03:00+4в3893100 0.0 1019194
06:00+5в4993100 0.0 1018304
09:00+8в5882100 0.0 1016820
12:00+6в4793100 0.6 1014999
15:00+6в4795100 1.9 1013832
18:00+6вюв51093100 0.4 1011550
21:00+6юв4996100 0.4 1009444
25 апреля, вс
вс2500:00+5вюв51197100 0.0 1007435
03:00+6юв61394100 0.6 1004584
06:00+4зюз6995100 3.6 1003621
09:00+3юз61196100 5.0 1004740
12:00+6юз71178100 0.6 10051105
15:00+6зюз81177100 1.6 10071308
18:00+5зюз611795 0.2 1008946
21:00+3юз51280100 0.2 1010399
26 апреля, пн
пн2600:00+2юз512855 0.0 1012405
03:00+1юз512895 0.0 1013364
06:00+2ююз5138287 0.0 1013489
09:00+6юз7106899 0.1 10131425
12:00+7зюз71161100 0.3 10131614
15:00+8зюз51051100 0.3 10131942
18:00+7юз37615 0.1 1013278
21:00+3ююз357025 0.1 101271
27 апреля, вт
вт2700:00+2ю3481100 0.0 101261
03:00+2ююз228891 0.0 101018
06:00+4ю2381100 0.0 100990
09:00+8ю3462100 0.0 10081030
12:00+10ю4557100 0.4 10051279
15:00+12ю6943100 1.3 10032757
18:00+9ю61160100 0.4 1001796
21:00+3ююз71195100 1.1 1001696